x

8413320 - Bar Harbor, Me (atgm1) Weather Station

7:30 - Thu 30th Mar 2017 All times are EDT. -4 hours from GMT.

  • Wind
    10mph, 15mph gusts
  • Sea Temp 36°f
  • Air Temp 38°f
  • Sea Pressure 1019mb
  • 8413320 - Bar Harbor, Me
  • 8413320 - Bar Harbor, Me

More Historic Weather Station data

Upgrade to MSW Pro to gain access to the past 30 days of data for over 8000 Wavebouys and Weather Stations around the globe.

Join Pro

Comparision Forecast

View Surf forecast
   
jeu. 03/30 7:30 10 15 mph 1019mb 36f 38f
7:24 10 16 mph 1019mb 36f 38f
7:18 10 17 mph 1018.9mb 36f 38f
7:12 11 20 mph 1018.8mb 36f 38f
7:06 10 17 mph 1018.8mb 36f 38f
7:00 11 18 mph 1018.7mb 36f 38f
6:54 13 17 mph 1018.7mb 36f 38f
6:48 11 17 mph 1018.6mb 36f 38f
6:42 11 17 mph 1018.7mb 36f 39f
6:36 13 18 mph 1018.6mb 36f 39f
6:30 11 23 mph 1018.6mb 36f 39f
6:24 11 20 mph 1018.5mb 36f 39f
6:18 9 16 mph 1018.5mb 36f 39f
6:12 8 17 mph 1018.5mb 36f 39f
6:06 8 15 mph 1018.6mb 36f 39f
6:00 10 17 mph 1018.5mb 36f 39f
5:54 9 22 mph 1018.5mb 36f 39f
5:48 10 18 mph 1018.4mb 36f 40f
5:42 14 20 mph 1018.3mb 36f 39f
5:36 14 22 mph 1018.4mb 36f 39f
5:30 13 21 mph 1018.3mb 36f 40f
5:24 16 22 mph 1018.3mb 36f 40f
5:18 14 20 mph 1018.3mb 36f 39f
5:12 15 22 mph 1018.1mb 36f 39f
5:06 11 18 mph 1018.2mb 36f 39f
5:00 8 17 mph 1018.1mb 36f 40f
4:54 13 21 mph 1018.1mb 36f 39f
4:48 14 22 mph 1018.2mb 36f 39f
4:42 15 25 mph 1018.1mb 36f 40f
4:36 18 24 mph 1017.9mb 36f 40f
4:30 17 28 mph 1017.9mb 36f 40f
4:24 17 24 mph 1017.7mb 36f 40f
4:18 20 23 mph 1017.6mb 36f 40f
4:12 20 24 mph 1017.5mb 36f 40f
4:06 16 25 mph 1017.4mb 36f 39f
4:00 17 22 mph 1017.5mb 36f 39f
3:54 14 22 mph 1017.6mb 36f 40f
3:48 11 23 mph 1017.7mb 36f 40f
3:42 11 26 mph 1017.7mb 36f 40f
3:36 21 26 mph 1017.4mb 36f 40f
3:30 18 26 mph 1017.5mb 36f 39f
3:24 18 24 mph 1017.4mb 36f 39f
3:18 21 28 mph 1017.3mb 36f 40f
3:12 17 23 mph 1017.4mb 36f 39f
3:06 18 29 mph 1017.4mb 36f 39f
3:00 17 22 mph 1017.3mb 36f 39f
2:54 14 22 mph 1017.5mb 36f 40f
2:48 15 26 mph 1017.5mb 36f 39f
2:42 20 26 mph 1017.4mb 36f 40f
2:36 17 28 mph 1017.5mb 36f 40f
2:30 17 26 mph 1017.6mb 36f 40f
2:24 18 24 mph 1017.7mb 36f 40f
2:18 17 24 mph 1017.7mb 36f 39f
2:12 17 23 mph 1017.7mb 36f 39f
2:06 22 28 mph 1017.7mb 36f 39f
2:00 15 24 mph 1017.8mb 36f 39f
1:54 15 21 mph 1018mb 36f 39f
1:48 14 22 mph 1018mb 36f 39f
1:42 15 23 mph 1018.1mb 36f 39f
1:36 13 18 mph 1018mb 36f 39f
1:30 9 15 mph 1018mb 36f 39f
1:24 10 18 mph 1018mb 36f 39f
1:18 9 23 mph 1018mb 36f 39f
1:12 11 18 mph 1018mb 36f 39f
1:06 9 20 mph 1018mb 36f 39f
1:00 10 18 mph 1018.1mb 36f 39f
12:54 13 23 mph 1018.3mb 36f 38f
12:48 14 21 mph 1018.3mb 36f 38f
12:42 9 20 mph 1018.4mb 36f 38f
12:36 16 22 mph 1018.3mb 36f 38f
12:30 9 21 mph 1018.4mb 36f 38f
12:24 14 23 mph 1018.4mb 36f 37f
12:18 15 22 mph 1018.3mb 36f 37f
12:12 10 17 mph 1018.4mb 36f 37f
12:06 7 17 mph 1018.5mb 36f 37f
12:00 9 23 mph 1018.5mb 36f 37f
11:54 15 24 mph 1018.4mb 36f 37f
11:48 18 23 mph 1018.5mb 36f 37f
11:42 14 23 mph 1018.6mb 36f 37f
11:36 14 21 mph 1018.5mb 36f 37f
11:30 17 30 mph 1018.5mb 36f 37f
11:24 18 30 mph 1018.5mb 36f 37f
11:18 17 26 mph 1018.6mb 36f 37f
11:12 16 22 mph 1018.7mb 36f 37f
11:06 16 21 mph 1018.9mb 35f 37f
11:00 14 22 mph 1019mb 35f 36f
10:54 14 23 mph 1019.1mb 35f 36f
10:48 15 20 mph 1019.1mb 35f 36f
10:42 16 24 mph 1019.1mb 35f 36f
10:36 14 26 mph 1019.1mb 35f 36f
10:30 15 22 mph 1019.2mb 35f 36f
10:24 16 24 mph 1019.3mb 35f 36f
10:18 16 26 mph 1019.3mb 35f 36f
10:12 21 28 mph 1019.2mb 35f 35f
10:06 17 28 mph 1019.2mb 35f 35f
10:00 21 24 mph 1019.2mb 35f 35f
9:54 13 24 mph 1019.4mb 35f 35f
9:48 16 23 mph 1019.3mb 35f 35f
9:42 16 26 mph 1019.2mb 35f 35f
9:36 18 25 mph 1019mb 35f 35f
9:30 15 23 mph 1018.9mb 35f 35f
9:24 15 23 mph 1019mb 35f 35f
9:18 15 24 mph 1018.8mb 35f 34f
9:12 16 22 mph 1018.7mb 35f 34f
9:06 17 23 mph 1018.8mb 35f 34f
9:00 17 24 mph 1018.7mb 35f 34f
8:54 17 26 mph 1018.7mb 35f 34f
8:48 17 24 mph 1018.6mb 35f 34f
8:42 13 22 mph 1018.6mb 35f 33f
8:36 20 24 mph 1018.3mb 35f 33f
8:30 16 25 mph 1018.4mb 35f 33f
8:24 18 22 mph 1018.3mb 35f 33f
8:18 17 23 mph 1018.3mb 35f 33f
8:12 18 23 mph 1018.2mb 35f 33f
8:06 16 23 mph 1018.4mb 35f 33f
8:00 17 25 mph 1018.2mb 35f 33f
7:54 18 25 mph 1018.2mb 35f 32f
7:48 17 23 mph 1018.1mb 35f 32f
7:42 18 23 mph 1018.1mb 35f 32f
7:36 17 23 mph 1018mb 35f 32f
7:30 21 23 mph 1017.9mb 35f 32f
7:24 18 22 mph 1017.9mb 35f 32f
7:18 17 23 mph 1018mb 35f 32f
7:12 18 22 mph 1017.9mb 35f 32f
7:06 17 21 mph 1018mb 35f 32f
7:00 17 21 mph 1017.8mb 35f 32f
6:54 16 20 mph 1017.8mb 35f 32f
6:48 16 18 mph 1017.7mb 35f 32f
6:42 17 20 mph 1017.6mb 35f 32f
6:36 16 21 mph 1017.5mb 35f 32f
6:30 16 22 mph 1017.5mb 35f 32f
6:24 15 18 mph 1017.4mb 35f 32f
6:18 16 20 mph 1017.3mb 35f 32f
6:12 16 21 mph 1017.1mb 35f 32f
6:06 17 22 mph 1017mb 35f 32f
6:00 16 22 mph 1016.9mb 35f 32f
5:54 17 21 mph 1016.9mb 35f 32f
5:48 17 22 mph 1016.9mb 35f 32f
5:42 17 21 mph 1016.7mb 35f 32f
5:36 17 23 mph 1016.6mb 35f 32f
5:30 16 22 mph 1016.6mb 35f 32f
5:24 17 22 mph 1016.5mb 35f 32f
5:18 17 21 mph 1016.5mb 35f 33f
5:12 18 22 mph 1016.4mb 35f 33f
5:00 18 22 mph 1016.3mb 35f 33f
4:54 17 22 mph 1016.3mb 35f 33f
4:48 18 22 mph 1016.2mb 35f 33f
4:42 16 22 mph 1016.1mb 35f 33f
4:36 17 22 mph 1016.1mb 35f 33f
4:30 17 23 mph 1016.1mb 35f 33f
4:24 17 21 mph 1016mb 35f 33f
4:18 17 22 mph 1016mb 35f 33f
4:12 17 22 mph 1016mb 35f 33f
4:06 17 22 mph 1016mb 35f 33f
4:00 17 22 mph 1016mb 35f 33f
3:54 17 20 mph 1016mb 35f 33f
3:48 18 22 mph 1015.9mb 35f 33f
3:42 18 23 mph 1016mb 35f 33f
3:36 18 24 mph 1015.9mb 35f 34f
3:30 20 22 mph 1015.9mb 35f 34f
3:24 17 22 mph 1015.9mb 35f 34f
3:18 18 21 mph 1015.9mb 35f 34f
3:12 16 22 mph 1016mb 35f 34f
3:06 17 22 mph 1015.9mb 35f 34f
3:00 17 20 mph 1016mb 35f 34f
2:54 16 18 mph 1016mb 35f 34f
2:48 15 20 mph - - -
2:42 16 20 mph - - -
2:36 16 18 mph - - -
2:30 16 20 mph 1016.4mb 35f 34f
2:24 15 18 mph 1016.3mb 35f 34f
2:18 14 17 mph 1016.4mb 35f 34f
2:12 16 18 mph 1016.4mb 35f 34f
2:06 15 18 mph 1016.5mb 35f 34f
2:00 15 17 mph 1016.4mb 35f 34f
1:54 14 18 mph 1016.4mb 35f 34f
1:48 15 17 mph 1016.4mb 35f 34f
1:42 13 15 mph 1016.5mb 35f 34f
1:36 13 15 mph 1016.6mb 35f 34f
1:30 13 15 mph 1016.5mb 35f 34f
1:24 11 14 mph 1016.6mb 35f 34f
1:18 11 15 mph 1016.7mb 35f 34f
1:12 11 17 mph 1016.7mb 35f 34f
1:06 10 18 mph 1016.7mb 35f 34f
1:00 10 17 mph 1016.8mb 35f 34f
12:54 11 17 mph 1016.7mb 35f 35f
12:48 14 20 mph 1016.6mb 35f 35f
12:42 15 21 mph 1016.7mb 35f 34f
12:36 16 21 mph 1016.6mb 35f 34f
12:30 14 18 mph 1016.6mb 35f 34f
12:24 14 18 mph 1016.6mb 35f 35f
12:18 13 17 mph 1016.6mb 35f 34f
12:12 14 20 mph 1016.6mb 35f 35f
12:06 13 18 mph 1016.6mb 35f 35f
12:00 15 17 mph 1016.6mb 35f 35f
mer. 03/29 11:54 13 17 mph 1016.5mb 35f 35f
11:48 11 15 mph 1016.6mb 35f 35f
11:42 9 15 mph 1016.5mb 35f 35f
11:36 8 13 mph 1016.5mb 35f 35f
11:30 8 14 mph 1016.5mb 35f 35f
11:24 9 15 mph 1016.5mb 35f 35f
11:18 9 15 mph 1016.4mb 35f 35f
11:12 8 15 mph 1016.4mb 36f 36f
11:06 11 18 mph 1016.5mb 36f 36f
11:00 10 16 mph 1016.5mb 36f 36f
10:48 13 16 mph 1016.5mb 36f 36f
10:42 11 18 mph 1016.5mb 35f 36f
10:36 13 17 mph 1016.4mb 35f 36f
10:30 13 20 mph 1016.4mb 35f 36f
10:24 11 16 mph 1016.3mb 35f 36f
10:18 10 14 mph 1016.3mb 35f 36f
10:12 9 13 mph 1016.4mb 35f 35f
10:06 10 16 mph 1016.4mb 35f 35f
10:00 13 16 mph 1016.4mb 36f 35f
9:54 13 16 mph 1016.4mb 35f 36f
9:42 14 17 mph 1016.4mb 35f 36f
9:36 14 18 mph 1016.4mb 35f 36f
9:30 14 20 mph 1016.4mb 36f 36f
9:24 15 18 mph 1016.3mb 36f 36f
9:18 14 20 mph 1016.3mb 36f 36f
9:12 14 20 mph 1016.3mb 36f 36f
9:06 11 16 mph 1016.3mb 36f 36f
9:00 13 17 mph 1016.3mb 36f 36f
8:54 14 17 mph 1016.2mb 35f 36f
8:48 13 16 mph 1016.1mb 36f 36f
8:42 11 15 mph 1016.1mb 36f 36f
8:36 10 15 mph 1016.1mb 36f 37f
8:30 10 17 mph 1016.1mb 36f 37f
8:24 11 15 mph 1016mb 36f 37f
8:18 10 15 mph 1016mb 36f 37f
8:12 10 14 mph 1015.9mb 36f 37f
8:06 10 14 mph 1015.8mb 36f 37f
8:00 6 13 mph 1015.7mb 36f 37f
7:54 8 15 mph 1015.5mb 36f 37f
7:48 6 10 mph 1015.4mb 36f 37f
7:36 10 15 mph 1015.1mb 36f 37f
7:30 9 13 mph 1015mb 36f 37f
7:24 8 10 mph 1015mb 36f 37f
7:18 8 11 mph 1014.9mb 36f 37f
7:12 8 10 mph 1014.8mb 36f 37f
7:06 7 10 mph 1014.7mb 36f 37f
7:00 7 13 mph 1014.7mb 36f 37f
6:54 8 13 mph 1014.6mb 36f 37f
6:48 7 11 mph 1014.5mb 36f 37f
6:42 7 10 mph 1014.4mb 36f 37f
6:36 6 13 mph 1014.4mb 36f 37f
6:30 7 13 mph 1014.3mb 36f 37f
6:24 6 13 mph 1014.3mb 36f 37f
6:18 8 16 mph 1014.2mb 36f 37f
6:12 13 16 mph 1014.1mb 36f 38f
6:06 13 15 mph 1013.9mb 36f 38f
6:00 11 15 mph 1013.8mb 36f 38f
5:54 14 16 mph 1013.7mb 36f 38f
5:48 14 15 mph 1013.7mb 36f 38f
5:42 13 15 mph 1013.6mb 36f 38f
5:36 11 14 mph 1013.6mb 36f 38f
5:30 11 15 mph 1013.5mb 36f 37f
5:24 13 16 mph 1013.5mb 36f 38f
5:18 11 14 mph 1013.4mb 36f 38f
5:12 11 14 mph 1013.4mb 36f 38f
5:06 11 15 mph 1013.4mb 36f 38f
5:00 11 15 mph 1013.3mb 36f 38f
4:54 11 15 mph 1013.3mb 36f 38f
4:48 13 17 mph 1013.2mb 36f 38f
4:42 14 20 mph 1013.2mb 36f 37f
4:36 14 18 mph 1013.2mb 36f 37f
4:30 14 17 mph 1013.3mb 36f 38f
4:24 8 13 mph 1013.5mb 36f 37f
4:18 7 11 mph 1013.6mb 36f 36f
4:12 10 16 mph 1013.6mb 35f 36f
4:06 13 17 mph 1013.7mb 36f 37f
4:00 11 18 mph 1013.6mb 35f 38f
3:54 8 13 mph 1013.5mb 36f 38f
3:48 10 15 mph 1013.5mb 36f 37f
3:42 11 15 mph 1013.6mb 35f 37f
3:36 8 10 mph 1013.7mb 35f 36f
3:30 9 22 mph 1013.7mb 36f 36f
3:24 16 21 mph 1013.8mb 35f 37f
3:18 18 21 mph 1013.4mb 35f 38f
3:12 15 18 mph 1013.4mb 35f 38f
3:06 15 18 mph 1013.3mb 35f 38f
3:00 13 16 mph 1013.4mb 35f 37f
2:54 14 18 mph 1013.4mb 35f 37f
2:48 14 21 mph 1013.5mb 35f 37f
2:42 9 13 mph 1013.6mb 36f 38f
2:36 9 16 mph 1013.7mb 35f 37f
2:30 14 18 mph 1013.8mb 35f 37f
2:24 13 16 mph 1013.6mb 35f 37f
2:18 14 16 mph 1013.6mb 35f 37f
2:12 7 14 mph 1013.7mb 35f 37f
2:06 11 15 mph 1013.8mb 35f 38f
2:00 6 8 mph 1013.8mb 35f 38f
1:54 6 9 mph 1013.8mb 35f 38f
1:48 6 9 mph 1013.9mb 35f 38f
1:42 7 11 mph 1014mb 35f 37f
1:36 9 13 mph 1014.1mb 35f 37f
1:30 9 13 mph 1014.1mb 35f 37f
1:24 6 13 mph 1014.1mb 35f 37f
1:18 5 9 mph 1014.2mb 35f 37f
1:12 9 15 mph 1014.2mb 35f 36f
1:06 10 14 mph 1014.2mb 35f 36f
1:00 9 14 mph 1014.1mb 35f 36f
12:54 13 16 mph 1014.2mb 35f 36f
12:48 7 13 mph 1014.2mb 35f 37f
12:42 6 13 mph 1014.2mb 35f 37f
12:36 8 11 mph 1014.1mb 35f 37f
12:30 7 11 mph 1014.1mb 35f 37f
12:24 7 13 mph 1014mb 35f 37f
12:18 6 11 mph 1013.9mb 35f 37f
12:12 5 15 mph 1014mb 35f 37f
12:06 8 16 mph 1013.9mb 35f 37f
12:00 5 9 mph 1014mb 35f 37f
11:54 6 10 mph 1014.1mb 35f 37f
11:48 6 11 mph 1014mb 35f 37f
11:42 7 11 mph 1014mb 35f 36f
11:36 7 10 mph 1014mb 35f 36f
11:30 3 11 mph 1014.1mb 35f 36f
11:24 6 11 mph 1014mb 35f 36f
11:18 6 10 mph 1014.1mb 35f 36f
11:12 8 14 mph 1014.2mb 35f 36f
11:06 6 11 mph 1014.2mb 35f 36f
11:00 6 8 mph 1014.3mb 35f 35f
10:54 7 9 mph 1014.3mb 35f 35f
10:48 8 11 mph 1014.3mb 35f 35f
10:42 9 13 mph 1014.3mb 35f 35f
10:36 7 14 mph 1014.3mb 35f 35f
10:30 6 10 mph 1014.4mb 35f 35f
10:24 6 9 mph 1014.3mb 35f 35f
10:18 6 9 mph 1014.3mb 35f 35f
10:12 5 7 mph 1014.3mb 35f 35f
10:06 5 6 mph 1014.3mb 35f 35f
10:00 5 6 mph 1014.3mb 35f 35f
9:54 3 6 mph 1014.3mb 35f 35f
9:48 1 5 mph 1014.4mb 35f 35f
9:42  -  2 mph 1014.4mb 35f 35f
9:36 1 8 mph 1014.4mb 35f 35f
9:30 5 8 mph 1014.3mb 35f 35f
9:24 6 8 mph 1014.3mb 35f 35f
9:18 6 9 mph 1014.3mb 35f 35f
9:12 6 10 mph 1014.4mb 35f 35f
9:06 7 9 mph 1014.4mb 35f 35f
9:00 6 9 mph 1014.5mb 35f 35f
8:54 7 9 mph 1014.6mb 35f 35f
8:48 7 9 mph 1014.5mb 35f 34f
8:42 5 8 mph 1014.5mb 35f 34f
8:36 3 6 mph 1014.6mb 35f 34f
8:30 5 8 mph 1014.6mb 35f 34f
8:24 5 9 mph 1014.6mb 35f 34f
8:18 5 8 mph 1014.7mb 35f 34f
8:12 7 9 mph 1014.7mb 35f 34f
8:06 5 9 mph 1014.8mb 35f 34f
8:00 5 8 mph 1014.8mb 35f 34f
7:54 5 9 mph 1014.7mb 35f 34f
7:48 6 9 mph 1014.6mb 35f 34f
7:42 6 9 mph 1014.6mb 35f 34f
7:36 5 13 mph 1014.6mb 35f 34f
7:30 5 9 mph 1014.6mb 35f 34f
7:24 5 7 mph 1014.7mb 35f 34f
7:18 5 9 mph 1014.6mb 35f 34f
7:12 6 9 mph 1014.6mb 35f 34f
7:06 6 8 mph 1014.6mb 35f 34f
7:00 3 6 mph 1014.5mb 35f 34f
6:54 3 6 mph 1014.5mb 35f 34f
6:48 5 7 mph 1014.5mb 35f 34f
6:42 6 7 mph 1014.5mb 35f 34f
6:36 2 6 mph 1014.5mb 35f 34f
6:30 2 5 mph 1014.5mb 35f 34f
6:24 5 7 mph 1014.5mb 35f 34f
6:18 6 8 mph 1014.4mb 35f 34f
6:12 5 6 mph 1014.4mb 35f 34f
6:06 3 6 mph 1014.3mb 35f 34f
6:00 5 8 mph 1014.3mb 35f 34f
5:54 5 7 mph 1014.3mb 35f 34f
5:48 5 7 mph 1014.1mb 35f 34f
5:42 5 6 mph 1014.1mb 35f 33f
5:36 2 5 mph 1014.1mb 35f 33f
5:30 3 6 mph 1014.1mb 35f 33f
5:24 3 5 mph 1014.1mb 35f 33f
5:18 5 6 mph 1014mb 35f 33f
5:12 5 6 mph 1014.1mb 35f 33f
5:06 5 6 mph 1014mb 35f 33f
5:00 2 6 mph 1014.1mb 35f 33f
4:54 5 7 mph 1014.1mb 35f 33f
4:48 5 7 mph 1014.1mb 35f 33f
4:42 3 6 mph 1014.2mb 35f 33f
4:36 3 6 mph 1014.1mb 35f 34f
4:30 2 3 mph 1014.1mb 35f 34f
4:24 2 6 mph 1014.1mb 35f 34f
4:18 3 5 mph 1014mb 35f 34f
4:12 3 6 mph 1014mb 35f 34f
4:06 2 5 mph 1014.1mb 35f 34f
4:00 2 5 mph 1014.1mb 35f 34f
3:54 2 8 mph 1014mb 35f 34f
3:48 5 6 mph 1014mb 35f 34f
3:42 3 5 mph 1014mb 35f 34f
3:36 3 6 mph 1013.9mb 35f 34f
3:30 2 5 mph 1013.9mb 35f 34f
3:24 3 5 mph 1014mb 35f 34f
3:18 3 7 mph 1014mb 35f 34f
3:12 3 6 mph 1014mb 35f 34f
3:06 3 6 mph 1014.1mb 35f 34f
3:00 3 6 mph 1014.1mb 35f 34f
2:54 3 5 mph 1014.3mb 35f 34f
2:48 3 5 mph 1014.4mb 35f 34f
2:42 2 3 mph 1014.4mb 35f 34f
2:36 2 5 mph 1014.4mb 35f 34f
2:30 3 5 mph 1014.5mb 35f 34f
2:24 3 5 mph 1014.6mb 35f 34f
2:18 2 5 mph 1014.6mb 35f 34f
2:12 3 5 mph 1014.6mb 35f 34f
2:06 3
mph
1014.7mb 35f 34f
2:00 3 5 mph 1014.7mb 35f 34f
1:54 3 5 mph 1014.8mb 35f 34f
1:48 1 3 mph 1014.8mb 35f -
1:42 3 5 mph 1014.9mb 35f -
1:36 3 5 mph 1014.9mb 35f -
1:30 3 5 mph 1014.9mb 35f 34f
1:24 3 5 mph 1014.9mb 35f 34f
1:18 3
mph
1014.9mb 35f 34f
1:12 2 3 mph 1014.8mb 35f 34f
1:06 2
mph
1014.9mb 35f 34f
1:00 1
mph
1014.8mb 35f 34f
12:54 1 2 mph 1014.9mb 35f 34f
12:48  -  1 mph 1015mb 35f 34f
12:42  -  1 mph 1014.9mb 35f 34f
12:36  -  1 mph 1014.9mb 35f 34f
12:30 1 2 mph 1015mb 35f 34f
12:24 1 3 mph 1015.1mb 35f 34f
12:18 2 5 mph 1015.1mb 35f 34f
12:12 2 3 mph 1015.2mb 35f 34f
12:06 1 2 mph 1015.1mb 35f 34f
12:00 2 3 mph 1015.2mb 35f 34f
mar. 03/28 11:54 2 3 mph 1015.2mb 35f 34f
11:48 3
mph
1015.2mb 35f 34f
11:42 2 3 mph 1015.3mb 35f 34f
11:36 2 3 mph 1015.3mb 35f 34f
11:30 2 3 mph 1015.2mb 35f 34f
11:24 1 2 mph 1015.1mb 35f 34f
11:18 1
mph
1015.1mb 35f 34f
11:12  -  mph 1015.1mb 35f 34f
11:06  -  mph 1015.1mb 35f 34f
11:00  -  1 mph 1015.1mb 35f 34f
10:54  -  1 mph 1015.1mb 35f 34f
10:48  -  2 mph 1015.2mb 35f 34f
10:42 1 2 mph 1015.2mb 35f 34f
10:36 1 3 mph 1015.2mb 35f 34f
10:30  -  3 mph 1015.1mb 35f 34f
10:24 2
mph
1015.3mb 35f 34f
10:18 2 3 mph 1015.2mb 35f 34f
10:12 2
mph
1015.3mb 35f 34f
10:06 2 3 mph 1015.4mb 35f 34f
10:00 2 3 mph 1015.4mb 35f 34f
9:54  -  1 mph 1015.4mb 35f 34f
9:48 1 2 mph 1015.6mb 35f 34f
9:42 1 2 mph 1015.6mb 35f 34f
9:36 2
mph
1015.6mb 35f 35f
9:30 1 2 mph 1015.7mb 35f 35f
9:24 1 2 mph 1015.7mb 35f 35f
9:18 2
mph
1015.7mb 35f 35f
9:12 2
mph
1015.8mb 35f 35f
9:06 2
mph
1015.8mb 35f 35f
9:00 2
mph
1015.8mb 35f 35f
8:54 2
mph
1015.7mb 35f 35f
8:48 2
mph
1015.7mb 35f 35f
8:42 2
mph
1015.7mb 35f 35f
8:36 2
mph
1015.7mb 35f 35f
8:30 1
mph
1015.8mb 35f 35f
8:24 1
mph
1015.8mb 35f 35f
8:18  -  mph 1015.8mb 35f 35f
8:12  -  1 mph 1015.9mb 35f 35f
8:06 1 2 mph 1015.7mb 35f 35f
8:00 2
mph
1015.5mb 35f 35f
7:54 2 3 mph 1015.5mb 35f 35f
7:48 2 5 mph 1015.4mb 35f 35f
7:42 3
mph
1015.4mb 35f 35f
7:36 3 5 mph 1015.3mb 35f 35f
7:30 3 5 mph 1015.2mb 35f 35f
7:24 5 6 mph 1015.1mb 35f 35f
7:18 6 7 mph 1015mb 35f 35f
7:12 6 7 mph 1014.9mb 35f 35f
7:06 6 8 mph 1014.9mb 35f 35f
7:00 7 9 mph 1015mb 35f 35f
6:54 8 9 mph 1014.9mb 35f 35f
6:48 7 10 mph 1014.9mb 35f 35f
6:42 8 10 mph 1014.9mb 35f 35f
6:36 9 11 mph 1015mb 35f 35f
6:30 9 11 mph 1015mb 35f 35f
6:24 10 11 mph 1015mb 35f 35f
6:18 8 13 mph 1015.1mb 35f 35f
6:12 10 11 mph 1015.1mb 35f 35f
6:06 9 10 mph 1015.3mb 35f 35f
6:00 9 10 mph 1015.4mb 35f 35f
5:54 7 9 mph 1015.6mb 35f 35f
5:48 7 9 mph 1015.7mb 35f 35f
5:42 7 8 mph 1015.7mb 35f 35f
5:36 6 7 mph 1015.8mb 35f 35f
5:30 6 8 mph 1015.7mb 35f 35f
5:24 7 9 mph 1015.6mb 35f 35f
5:18 7 8 mph 1015.6mb 35f 35f
5:12 6 8 mph 1015.7mb 35f 35f
5:06 6 9 mph 1015.7mb 35f 35f
5:00 7 8 mph 1015.6mb 35f 35f
4:54 6 9 mph 1015.6mb 35f 35f
4:48 8 10 mph 1015.5mb 35f 35f
4:42 6 8 mph 1015.6mb 35f 35f
4:36 5 8 mph 1015.7mb 35f 35f
4:30 7 9 mph 1015.6mb 35f 35f
4:24 7 9 mph 1015.6mb 35f 35f
4:18 8 10 mph 1015.4mb 35f 35f
4:12 8 11 mph 1015.3mb 35f 35f
4:06 7 9 mph 1015.3mb 35f 35f
4:00 8 9 mph 1015.3mb 35f 35f
3:54 9 11 mph 1015.1mb 35f 35f
3:48 9 11 mph 1015mb 35f 35f
3:42 9 11 mph 1015.2mb 35f 35f
3:36 10 13 mph 1015.2mb 35f 35f
3:30 10 11 mph 1015.4mb 35f 35f
3:24 8 10 mph 1015.5mb 35f 35f
3:18 7 9 mph 1015.7mb 35f 35f
3:12 7 8 mph 1015.8mb 35f 35f
3:06 5 7 mph 1015.9mb 35f 35f
3:00 6 9 mph 1015.9mb 35f 35f
2:54 8 9 mph 1015.7mb 35f 35f
2:48 7 10 mph 1015.9mb 35f 35f
2:42 9 10 mph 1015.8mb 35f 35f
2:36 6 8 mph 1015.9mb 35f 35f
2:30 6 8 mph 1015.9mb 35f 35f
2:24 6 7 mph 1015.9mb 35f 35f
2:18 5 7 mph 1016mb 35f 35f
2:12 5 8 mph 1016.2mb 35f 35f
2:06 5 7 mph 1016.3mb 35f 35f
2:00 6 7 mph 1016.3mb 35f 35f
1:54 7 8 mph 1016.4mb 35f 35f
1:48 6 7 mph 1016.4mb 35f 35f
1:42 6 7 mph 1016.5mb 35f 35f
1:36 6 7 mph 1016.4mb 35f 35f
1:30 6
mph
1016.5mb 35f 34f
1:24 6 7 mph 1016.5mb 35f 34f
1:18 5 6 mph 1016.5mb 35f 35f
1:12 2 5 mph 1016.5mb 35f 34f
1:06 3 5 mph 1016.5mb 35f 34f
1:00 2 3 mph 1016.6mb 35f 34f
12:54 2 3 mph 1016.7mb 35f 34f
12:48 2 3 mph 1016.9mb 35f 34f
12:42 2 3 mph 1016.8mb 35f 34f
12:36 3 5 mph 1016.9mb 35f 34f
12:30 2 3 mph 1016.9mb 35f 35f
12:24 2
mph
1016.8mb 35f 35f
12:18  -  1 mph 1016.8mb 35f 35f
12:12 1
mph
1016.8mb 35f 35f
12:06  -  2 mph 1016.7mb 35f 35f
12:00 2 3 mph 1016.7mb 35f 34f
11:54 1 3 mph 1016.6mb 35f 34f
11:48 1 5 mph 1016.6mb 35f 34f
11:42 3 7 mph 1016.5mb 35f 33f
11:36 7 9 mph 1016.5mb 35f 33f
11:30 9 11 mph 1016.4mb 35f 33f
11:24 10 11 mph 1016.4mb 35f 33f
11:18 8 11 mph 1016.4mb 35f 33f
11:12 9 11 mph 1016.5mb 35f 33f
11:06 10 11 mph 1016.6mb 35f 33f
11:00 8 9 mph 1016.8mb 35f 33f
10:54 8 9 mph 1016.8mb 35f 33f
10:48 8 9 mph 1016.9mb 35f 33f
10:42 8 9 mph 1017mb 35f 33f
10:36 6 11 mph 1017.1mb 35f 33f
10:30 8 9 mph 1017mb 35f 33f
10:24 7 9 mph 1017mb 35f 33f
10:18 7 8 mph 1017mb 35f 32f
10:06 7 9 mph 1016.9mb 35f 33f
10:00 8 10 mph 1016.8mb 35f 32f
9:54 8 10 mph 1016.8mb 35f 32f
9:48 8 10 mph 1016.9mb 35f 32f
9:42 7 10 mph 1016.8mb 35f 32f
9:36 9 10 mph 1016.9mb 35f 32f
9:30 10 11 mph 1016.8mb 35f 32f
9:24 9 11 mph 1016.6mb 35f 32f
9:18 11 13 mph 1016.5mb 35f 32f
9:12 9 10 mph 1016.6mb 35f 32f
9:06 8 11 mph 1016.6mb 35f 32f
9:00 9 13 mph 1016.7mb 35f 32f
8:54 9 10 mph 1016.7mb 35f 32f
8:48 8 10 mph 1016.8mb 35f 32f
8:42 9 13 mph 1016.6mb 35f 32f
8:36 9 11 mph 1016.5mb 35f 32f
8:30 8 9 mph 1016.5mb 35f 32f
8:24 8 10 mph 1016.7mb 35f 32f
8:18 8 9 mph 1016.7mb 35f 32f
8:12 9 11 mph 1016.6mb 35f 32f
8:06 10 14 mph 1016.7mb 35f 32f
8:00 10 11 mph 1016.5mb 35f 32f
7:54 10 11 mph 1016.5mb 35f 32f
7:48 8 10 mph 1016.7mb 35f 32f
7:42 7 9 mph 1016.9mb 35f 32f
7:36 7 10 mph 1017.1mb 35f 32f
7:30 7 10 mph 1016.9mb 35f 32f
7:24 8 9 mph 1016.7mb 35f 32f
7:18 6 7 mph 1016.5mb 35f 32f
7:12 5 6 mph 1016.4mb 35f 32f
7:06 6 9 mph 1016.4mb 35f 32f
7:00 7 8 mph 1016.3mb 35f 32f
6:54 8 11 mph 1016mb 35f 32f
6:48 8 10 mph 1015.9mb 35f 32f
6:42 11 13 mph 1015.9mb 35f 32f
6:36 7 10 mph 1015.8mb 35f 32f
6:30 8 14 mph 1015.8mb 35f 32f
6:24 11 14 mph 1015.6mb 35f 32f
6:18 8 11 mph 1015.6mb 35f 32f
6:12 7 11 mph 1015.6mb 35f 32f
6:06 9 13 mph 1015.5mb 35f 32f
6:00 9 13 mph 1015.5mb 35f 32f
5:54 10 13 mph 1015.5mb 35f 32f
5:48 10 11 mph 1015.6mb 35f 32f
5:42 7 9 mph 1015.6mb 35f 32f
5:36 8 10 mph 1015.7mb 35f 32f
5:30 7 11 mph 1015.7mb 35f 32f
5:24 9 11 mph 1015.5mb 35f 32f
5:18 8 11 mph 1015.7mb 35f 32f
5:12 7 10 mph 1015.6mb 35f 33f
5:06 8 10 mph 1015.5mb 35f 33f
5:00 5 7 mph 1015.5mb 35f 33f
4:54 6 7 mph 1015.6mb 35f 33f
4:48 7 9 mph 1015.7mb 35f 33f
4:42 7 10 mph 1015.8mb 35f 33f
4:36 6 8 mph 1015.7mb 35f 33f
4:30 6 8 mph 1015.6mb 35f 33f
4:24 5 10 mph 1015.7mb 35f 33f
4:18 5 6 mph 1015.6mb 35f 33f
4:12 6 7 mph 1015.5mb 35f 33f
4:06 6 7 mph 1015.4mb 35f 33f
4:00 6 8 mph 1015.4mb 35f 33f
3:54 6 8 mph 1015.4mb 35f 33f
3:48 5 7 mph 1015.3mb 35f 33f
3:42 6 7 mph 1015.5mb 35f 33f
3:36 3 5 mph 1015.4mb 35f 33f
3:30 6 7 mph 1015.4mb 35f 33f
3:24 6 7 mph 1015.3mb 35f 33f
3:18 5 7 mph 1015.4mb 35f 33f
3:12 6 8 mph 1015.4mb 35f 33f
3:06 6 7 mph 1015.5mb 35f 33f
3:00 5 6 mph 1015.8mb 35f 33f
2:54 5 7 mph 1015.7mb 35f 33f
2:48 6 7 mph 1015.7mb 35f 33f
2:42 5 7 mph 1015.7mb 35f 33f
2:36 6 8 mph 1015.8mb 35f 33f
2:30 7 8 mph 1015.6mb 35f 33f
2:24 7 8 mph 1015.5mb 35f 33f
2:18 7 9 mph 1015.7mb 35f 33f
2:12 7
mph
1015.8mb 35f 33f
2:06 5 7 mph 1015.7mb 35f 33f
2:00 3 7 mph 1015.7mb 35f 33f
1:54 6 7 mph 1015.5mb 35f 33f
1:48 6 8 mph 1015.5mb 35f 33f
1:42 6 8 mph 1015.4mb 35f 33f
1:36 7 8 mph 1015.5mb 35f 33f
1:30 3 9 mph 1015.7mb 35f 33f
1:24 6 7 mph 1015.5mb 35f 33f
1:18 6 10 mph 1015.6mb 35f 33f
1:12 8 11 mph 1015.6mb 35f 33f
1:06 7 10 mph 1015.6mb 35f 33f
1:00 5 8 mph 1015.7mb 35f 33f
12:54 6 7 mph 1015.7mb 35f 33f
12:48 7 11 mph 1015.7mb 35f 33f
12:42 6 9 mph 1015.8mb 35f 33f
12:36 8 9 mph 1015.8mb 35f 33f
12:30 6 11 mph 1015.7mb 35f 33f
12:24 8 10 mph 1015.7mb 35f 33f
12:18 8 9 mph 1015.7mb 35f 33f
12:12 7 9 mph 1015.7mb 35f 33f
12:06 6 9 mph 1015.9mb 35f 33f
12:00 6 10 mph 1016mb 35f 33f
lun. 03/27 11:54 10 13 mph 1015.9mb 35f 33f
11:48 10 14 mph 1016mb 35f 33f
11:42 8 11 mph 1016mb 35f 33f
11:36 11 13 mph 1016.1mb 35f 33f
11:30 9 14 mph 1016.1mb 35f 33f
11:24 10 13 mph 1016.3mb 35f 33f
11:18 11 15 mph 1016.3mb 35f 33f
11:12 13 14 mph 1016.4mb 35f 33f
11:06 10 13 mph 1016.5mb 35f 33f
11:00 9 14 mph 1016.5mb 35f 33f
10:54 11 13 mph 1016.5mb 35f 33f
10:48 10 13 mph 1016.6mb 35f 33f
10:42 11 14 mph 1016.7mb 35f 33f
10:36 9 11 mph 1016.8mb 35f 33f
10:30 10 13 mph 1016.8mb 35f 33f
10:24 14 17 mph 1016.9mb 35f 33f
10:18 13 16 mph 1017mb 35f 33f
10:12 11 14 mph 1017.1mb 35f 33f
10:06 11 15 mph 1017.1mb 35f 33f
10:00 15 20 mph 1017.1mb 35f 33f
9:54 13 15 mph 1017.1mb 35f 33f
9:48 10 15 mph 1017.2mb 35f 33f
9:42 14 16 mph 1017.4mb 35f 33f
9:36 14 15 mph 1017.3mb 35f 33f
9:30 11 17 mph 1017.5mb 35f 33f
9:24 15 18 mph 1017.6mb 35f 33f
9:18 13 18 mph 1017.7mb 35f 33f
9:12 14 17 mph 1017.7mb 35f 33f
9:06 15 18 mph 1017.7mb 35f 33f
9:00 16 20 mph 1017.8mb 35f 33f
8:54 15 21 mph 1017.7mb 35f 33f
8:48 16 20 mph 1017.9mb 35f 33f
8:42 16 21 mph 1018mb 35f 33f
8:36 18 21 mph 1018mb 35f 33f
8:30 18 22 mph 1018mb 35f 33f
8:24 17 22 mph 1018.1mb 35f 33f
8:18 17 20 mph 1018.2mb 35f 33f
8:12 17 20 mph 1018.2mb 35f 33f
8:06 17 23 mph 1018.2mb 35f 33f
8:00 21 23 mph 1018.2mb 35f 33f
7:54 18 21 mph 1018.3mb 35f 33f
7:48 16 20 mph 1018.5mb 35f 33f
7:42 17 20 mph 1018.6mb 35f 33f
7:36 14 21 mph 1018.8mb 35f 33f
7:30 16 20 mph 1018.7mb 35f 33f
7:24 17 21 mph 1018.6mb 35f 33f
7:18 17 21 mph 1018.6mb 35f 33f
7:12 17 21 mph 1018.7mb 35f 33f
7:06 18 22 mph 1018.8mb 35f 33f
7:00 16 20 mph 1018.9mb 35f 33f
6:54 17 20 mph 1019.1mb 35f 33f
6:48 17 22 mph 1019.1mb 35f 33f
6:42 17 21 mph 1019.1mb 35f 33f
6:36 18 21 mph 1019.3mb 35f 33f
6:30 17 20 mph 1019.2mb 35f 33f
6:24 17 20 mph 1019.4mb 35f 33f
6:18 17 22 mph 1019.6mb 35f 33f
6:12 16 21 mph 1019.6mb 35f 33f
6:06 16 18 mph 1019.6mb 35f 33f
6:00 14 16 mph 1019.7mb 35f 33f
5:54 11 14 mph 1019.8mb 35f 33f
5:48 13 15 mph 1019.8mb 35f 32f
5:42 10 13 mph 1019.9mb 35f 32f
5:36 10 13 mph 1020mb 35f 32f
5:30 11 14 mph 1020.1mb 35f 32f
5:24 11 17 mph 1020.2mb 35f 32f
5:18 11 16 mph 1020.2mb 35f 32f
5:12 14 16 mph 1020.3mb 35f 32f
5:06 11 20 mph 1020.3mb 35f 32f
5:00 14 20 mph 1020.4mb 35f 32f
4:54 16 21 mph 1020.3mb 35f 32f
4:48 16 25 mph 1020.6mb 35f 32f
4:42 20 24 mph 1020.4mb 35f 33f
4:36 23 28 mph 1020.4mb 35f 33f
4:30 21 25 mph 1020.4mb 35f 33f
4:24 21 28 mph 1020.4mb 35f 33f
4:18 22 28 mph 1020.4mb 35f 33f
4:12 21 26 mph 1020.6mb 35f 33f
4:06 20 24 mph 1020.8mb 35f 33f
4:00 20 26 mph 1020.7mb 35f 33f
3:54 20 24 mph 1020.9mb 35f 33f
3:48 20 23 mph 1021.2mb 35f 33f
3:42 15 21 mph 1021.4mb 35f 33f
3:36 18 25 mph 1021.1mb 35f 33f
3:30 21 28 mph 1021mb 35f 33f
3:24 22 28 mph 1021mb 35f 33f
3:18 18 26 mph 1021.1mb 35f 33f
3:12 20 29 mph 1021.3mb 35f 33f
3:06 21 29 mph 1021.5mb 35f 33f
3:00 22 26 mph 1021.9mb 35f 33f
2:54 22 28 mph 1022.3mb 35f 33f
2:48 21 25 mph 1022.8mb 35f 33f
2:42 17 25 mph 1023mb 35f 33f
2:36 16 23 mph 1023.1mb 35f 33f
2:30 18 24 mph 1023mb - 33f
2:24 18 25 mph 1023mb - 33f
2:18 22 29 mph 1023.3mb 35f 33f
2:12 21 29 mph 1022.9mb 35f 33f
2:06 23 28 mph 1023.3mb 35f 33f
2:00 23 28 mph 1023.5mb 35f 34f
1:54 22 25 mph 1023.5mb 35f 33f
1:48 18 26 mph 1023.5mb 35f 33f
1:42 22 28 mph 1023.6mb 35f 33f
1:36 20 24 mph 1023.6mb 35f 33f
1:30 20 28 mph 1023.8mb 35f 33f
1:24 22 28 mph 1023.9mb 35f 33f
1:18 23 25 mph 1024mb 35f 33f
1:12 16 25 mph 1024.5mb 35f 33f
1:06 17 24 mph 1024.6mb 35f 33f
1:00 20 25 mph 1024.6mb 35f 33f
12:54 17 25 mph 1024.8mb 35f 33f
12:48 20 24 mph 1025mb 35f 33f
12:42 17 24 mph 1025.1mb 35f 33f
12:36 21 25 mph 1025.1mb 35f 34f
12:30 20 24 mph 1025.1mb 35f 34f
12:24 18 24 mph 1025.2mb 35f 34f
12:18 20 25 mph 1025.2mb 35f 34f
12:12 22 26 mph 1025.4mb 35f 34f
12:06 17 21 mph 1025.4mb 35f 34f
12:00 20 23 mph 1025.4mb 35f 34f
11:54 18 23 mph 1025.3mb 35f 34f
11:48 20 22 mph 1025.3mb 35f 34f
11:42 20 23 mph 1025.3mb 35f 34f
11:36 18 23 mph 1025.3mb 35f 34f
11:30 18 24 mph 1025.4mb 35f 34f
11:24 20 23 mph 1025.4mb 35f 34f
11:18 18 24 mph 1025.6mb 35f 34f
11:12 18 23 mph 1025.6mb 35f 34f
11:06 20 23 mph 1025.8mb 35f 34f
11:00 21 24 mph 1025.8mb 35f 34f
10:54 21 24 mph 1026mb 35f 34f
10:48 17 23 mph 1026mb 35f 34f
10:42 21 23 mph 1026.1mb 35f 34f
10:36 18 23 mph 1026.2mb 35f 34f
10:30 20 24 mph 1026.4mb 35f 34f
10:24 18 22 mph 1026.5mb 35f 34f
10:18 16 21 mph 1026.5mb 35f 34f
10:12 20 22 mph 1026.5mb 35f 34f
10:06 20 22 mph 1026.5mb 35f 34f
10:00 17 21 mph 1026.8mb 35f 34f
9:54 16 21 mph 1026.8mb 35f 34f
9:48 16 22 mph 1026.8mb 35f 34f
9:42 16 22 mph 1026.8mb 35f 34f
9:36 15 21 mph 1026.8mb 35f 34f
9:30 15 21 mph 1026.8mb 35f 34f
9:24 16 22 mph 1026.8mb 35f 34f
9:18 15 20 mph 1026.9mb 35f 34f
9:12 15 20 mph 1026.8mb 35f 34f
9:06 16 20 mph 1026.9mb 35f 34f
9:00 16 18 mph 1027.1mb 35f 34f
8:54 15 17 mph 1027.2mb 35f 34f
8:48 13 18 mph 1027.1mb 35f 34f
8:42 13 17 mph 1027.1mb 35f 34f
8:36 13 16 mph 1026.9mb 35f 34f
8:30 10 17 mph 1027.1mb 35f 34f
8:24 14 17 mph 1027mb 35f 34f
8:18 13 16 mph 1027mb 35f 33f
8:12 13 16 mph 1027.1mb 35f 33f
8:06 15 17 mph 1027mb 35f 33f
8:00 14 20 mph 1027.1mb 35f 33f
7:54 20 22 mph 1027mb 35f 33f
7:48 16 20 mph 1027mb 35f 33f
7:42 14 16 mph 1027.4mb 35f 33f
7:36 11 15 mph 1027.5mb 35f 32f
7:30 9 14 mph 1027.3mb 35f 32f
7:24 10 13 mph 1027.3mb 35f 32f
7:18 11 13 mph 1027.3mb 35f 31f
7:12 10 13 mph 1027.3mb 35f 31f
7:06 10 13 mph 1027.4mb 35f 31f
7:00 8 13 mph 1027.5mb 35f 31f
6:54 9 13 mph 1027.6mb 35f 31f
6:48 9 13 mph 1027.7mb 35f 31f
6:42 8 11 mph 1027.8mb 35f 31f
6:36 9 13 mph 1027.8mb 35f 31f
6:30 10 13 mph 1027.9mb 35f 30f
6:24 10 13 mph 1028mb 35f 31f
6:18 9 14 mph 1028.1mb 35f 30f
6:12 9 13 mph 1028mb 35f 30f
6:06 11 13 mph 1028.1mb 35f 30f
6:00 10 13 mph 1028.2mb 35f 30f
5:54 7 11 mph 1028.2mb 35f 30f
5:48 6 9 mph 1028.3mb 35f 30f
5:42 5 7 mph 1028.4mb 35f 30f
5:36 3 7 mph 1028.6mb 35f 30f
5:30 5 6 mph 1028.6mb 35f 29f
5:24  -  2 mph 1028.7mb 35f 29f
5:18 2 3 mph 1028.7mb 35f 29f
5:12 1 3 mph 1028.7mb 35f 29f
5:06 3 5 mph 1028.6mb 35f 29f
5:00 3
mph
1028.6mb 35f 29f
4:54  -  3 mph 1028.7mb 35f 29f
4:48 2 6 mph 1028.7mb 35f 29f
4:42 3 6 mph 1028.7mb 35f 29f
4:36 2 5 mph 1028.7mb 35f 29f
4:30 2 5 mph 1028.7mb 35f 29f
4:24 2 3 mph 1028.8mb 35f 29f
4:18 2 5 mph 1028.8mb 35f 30f
4:12 2 6 mph 1028.9mb 35f 30f
4:06 2 6 mph 1028.8mb 35f 31f
4:00 3
mph
1028.7mb 35f 31f
3:54  -  1 mph 1028.7mb 35f 32f
3:48  -  1 mph 1028.8mb 35f 32f
3:42  -  1 mph 1028.9mb 35f 32f
3:36 1 2 mph 1028.9mb 35f 32f
3:30  -  1 mph 1029mb 35f 32f
3:24  -  1 mph 1029.1mb 35f 32f
3:18  -  1 mph 1029.2mb 35f 32f
3:12 1 2 mph 1029.2mb 35f 32f
3:06 1
mph
1029.2mb 35f 32f
3:00 1 2 mph 1029.3mb 35f 32f
2:54 1 2 mph 1029.5mb 35f 32f
2:48  -  1 mph 1029.5mb 35f 32f
2:42  -  mph 1029.5mb 35f 32f
2:36  -  2 mph 1029.5mb 35f 32f
2:30 2
mph
1029.6mb 35f 32f
2:24 1 2 mph 1029.6mb 35f 32f
2:18 2 3 mph 1029.6mb 35f 32f
2:12 2
mph
1029.7mb 35f 32f
2:06 1 2 mph 1029.6mb 35f 32f
2:00  -  2 mph 1029.5mb 35f 32f
1:54  -  2 mph 1029.5mb 35f 32f
1:48 2 3 mph 1029.6mb 35f 32f
1:42 2 3 mph 1029.5mb 35f 32f
1:36 3 6 mph 1029.5mb 35f 32f
1:30 3 5 mph 1029.5mb 35f 32f
1:24 3 5 mph 1029.5mb 35f 32f
1:18 2 3 mph 1029.6mb 35f 32f
1:12 3 5 mph 1029.6mb 35f 32f
1:06 3 5 mph 1029.6mb 35f 32f
1:00 3
mph
1029.6mb 35f 32f
12:54 2 3 mph 1029.7mb 35f 32f
12:48 3
mph
1029.7mb 35f 32f
12:42 3
mph
1029.8mb 35f 32f
12:36 2 3 mph 1029.8mb 35f 32f
12:30  -  1 mph 1029.8mb 35f 32f